Regional Weather Roundup
Issued by NWS

Home | Current Version | Previous Version | Text Only | Print | Product List | Glossary Off
Versions: 1 2 3 4 5 6 7 8 9 10 11 12 13 14 15 16 17 18 19 20 21 22 23 24 25 26 27 28 29 30 31 32 33 34 35 36 37 38 39 40 41 42 43 44 45 46 47 48 49 50

000
ASUS44 KMEG 140500
RWRTN
TENNESSEE HOURLY STATE WEATHER ROUNDUP
NATIONAL WEATHER SERVICE MEMPHIS TN
1100 PM CST SAT FEB 13 2016

TNZ002-004-019-021-049-052-054-088>092-140600-
WEST TENNESSEE

CITY           SKY/WX    TMP DP  RH WIND       PRES   REMARKS
MEMPHIS INTL   PTCLDY    30   9  41 E7        30.36F WCI  23
NWS MEMPHIS      N/A     29 N/A N/A MISG        N/A
JACKSON        CLEAR     27   8  44 E7        30.38F WCI  19
DYERSBURG      CLOUDY    27  10  50 E7        30.41F WCI  19
PARIS          CLOUDY    25   5  42 E7        30.40F WCI  17
$$

TNZ008-025-027-028-033-062-065-066-140600-
NORTH MIDDLE TENNESSEE

CITY           SKY/WX    TMP DP  RH WIND       PRES   REMARKS
NASHVILLE      CLOUDY    27   3  35 E9        30.41F WCI  18
CLARKSVILLE    CLOUDY    25   7  46 E6        30.43S WCI  18
COOKEVILLE     CLEAR     19  10  68 CALM      30.38F
CROSSVILLE     CLOUDY    20   4  50 NE8       30.33F WCI  10
$$

TNZ061-075-076-078-094-096-097-140600-
SOUTH MIDDLE TENNESSEE

CITY           SKY/WX    TMP DP  RH WIND       PRES   REMARKS
WINCHESTER     CLEAR     23   9  54 N3        30.38F
$$

TNZ017-018-042-046-047-140600-
NORTHEAST TENNESSEE

CITY           SKY/WX    TMP DP  RH WIND       PRES   REMARKS
TRI CITIES     CLOUDY    14   5  67 CALM      30.39F
$$

TNZ012-013-036-069-073-074-140600-
CENTRAL EAST TENNESSEE

CITY           SKY/WX    TMP DP  RH WIND       PRES   REMARKS
KNOXVILLE      CLEAR     21   7  54 NE7       30.40F WCI  12
OAK RIDGE      CLOUDY    22   5  48 NE3       30.43S
$$

TNZ083-085-099-140600-
SOUTHEAST TENNESSEE

CITY           SKY/WX    TMP DP  RH WIND       PRES   REMARKS
CHATTANOOGA    CLOUDY    27   4  37 NE8       30.39F WCI  19
$$

SKY/WX REPORTED AS FAIR MEANS FEW OR NO CLOUDS BELOW
12 THOUSAND FEET.




USA.gov is the U.S. government's official web portal to all federal, state and local government web resources and services.